Location: ????????
(60.5616°N, 46.8254°E)
Time: 08:48:06
(UTC+00:00)

Cosmos 2369 Rocket - Pass Details

Date: 18 February 2020
Orbit: 827 x 854 km, 71.0° (Epoch: 03 April)

Event Time Altitude Azimuth Distance (km) Brightness Sun altitude
Rises 16:07:04 0° 178° (S) 3,385 5.2 -17.5°
Reaches altitude 10° 16:09:43 10° 169° (SSE) 2,459 4.4 -17.9°
Enters shadow 16:14:08 30° 118° (ESE) 1,466 2.9 -18.4°
